Weather History for Poplar Bluff, MO

Change the Weather History Date:

Tuesday, May 21, 2013

  Actual Average Record
Temperature  
Mean Temperature 72 °F -  
Max Temperature 75 °F 81 °F 98 °F (1925)
Min Temperature 66 °F 58 °F 37 °F (1954)
Cooling Degree Days 7    
Growing Degree Days 22 (Base 50)    
Moisture  
Dew Point 63 °F    
Average Humidity 85    
Maximum Humidity 94    
Minimum Humidity 65    
Precipitation  
Precipitation 0.68 in - - ()
Sea Level Pressure  
Sea Level Pressure 29.83 in    
Wind  
Wind Speed 12 mph (SSW)    
Max Wind Speed 21 mph    
Max Gust Speed 32 mph    
Visibility 9 miles    
Events Rain , Thunderstorm    
Averages and records for this station are not official NWS values.
T = Trace of Precipitation, MM = Missing Value Source: NWS Daily Summary

Daily Weather History Graph

Daily Weather History Graph

Search for Another Location

Airport:

Trip Planner

Search our weather history database for the weather conditions in past years. The results will help you decide how hot, cold, wet, or windy it might be!

Date:

Astronomy

May. 21, 2013 Rise Set
Actual Time 5:49 AM CDT 8:07 PM CDT
Civil Twilight 5:19 AM CDT 8:36 PM CDT
Nautical Twilight 4:43 AM CDT 9:12 PM CDT
Astronomical Twilight 4:04 AM CDT 9:52 PM CDT
Moon 4:25 PM CDT 3:11 AM CDT
Length of Visible Light 15h 16m
Length of Day
14h 17m
Waxing Gibbous, 84% of the Moon is Illuminated
May 21
Waxing Gibbous
May 24
Full
May 31
Last Quarter
Jun 8
New
Jun 16
First Quarter

Hourly Weather History & Observations

Time (CDT) Temp. Dew Point Humidity Pressure Visibility Wind Dir Wind Speed Gust Speed Precip Events Conditions
12:53 AM 78.1 °F 68.0 °F 71% 29.83 in 10.0 mi WNW 17.3 mph 23.0 mph 0.00 in   Mostly Cloudy
1:06 AM 73.4 °F 60.8 °F 65% 29.85 in 10.0 mi NW 12.7 mph - N/A Thunderstorm Overcast
1:28 AM 68.0 °F 62.6 °F 83% 29.90 in 1.8 mi West 20.7 mph 32.2 mph 0.05 in Rain , Thunderstorm Heavy Thunderstorms and Rain
1:45 AM 66.2 °F 62.6 °F 88% 29.91 in 2.0 mi West 17.3 mph 23.0 mph 0.39 in Rain , Thunderstorm Heavy Thunderstorms and Rain
1:49 AM 66.2 °F 62.6 °F 88% 29.91 in 3.0 mi WSW 15.0 mph 21.9 mph 0.41 in Rain , Thunderstorm Thunderstorms and Rain
1:53 AM 66.0 °F 62.1 °F 87% 29.90 in 5.0 mi WSW 11.5 mph 21.9 mph 0.41 in Rain , Thunderstorm Light Thunderstorms and Rain
2:24 AM 66.2 °F 62.6 °F 88% 29.86 in 10.0 mi WSW 3.5 mph - 0.01 in   Overcast
2:53 AM 66.0 °F 63.0 °F 90% 29.86 in 10.0 mi Calm Calm - 0.01 in Rain Light Rain
3:53 AM 66.0 °F 63.0 °F 90% 29.81 in 10.0 mi Calm Calm - 0.01 in   Partly Cloudy
4:53 AM 66.0 °F 63.0 °F 90% 29.81 in 10.0 mi SSE 6.9 mph - N/A   Partly Cloudy
5:53 AM 66.9 °F 63.0 °F 87% 29.84 in 10.0 mi SSE 13.8 mph - N/A   Partly Cloudy
6:53 AM 66.9 °F 63.0 °F 87% 29.88 in 10.0 mi WSW 11.5 mph 23.0 mph 0.00 in   Clear
7:53 AM 68.0 °F 63.0 °F 84% 29.91 in 10.0 mi SW 17.3 mph 23.0 mph N/A   Mostly Cloudy
8:16 AM 68.0 °F 62.6 °F 83% 29.92 in 10.0 mi SSW 12.7 mph 21.9 mph 0.00 in Rain , Thunderstorm Light Rain
8:28 AM 66.2 °F 62.6 °F 88% 29.92 in 8.0 mi SSW 15.0 mph - 0.01 in Rain , Thunderstorm Light Rain
8:53 AM 66.9 °F 62.1 °F 84% 29.83 in 4.0 mi East 8.1 mph - 0.09 in Rain , Thunderstorm Rain
9:11 AM 66.2 °F 62.6 °F 88% 29.76 in 10.0 mi ESE 19.6 mph 25.3 mph 0.02 in Rain Light Rain
9:23 AM 66.2 °F 62.6 °F 88% 29.79 in 10.0 mi SSE 15.0 mph 20.7 mph 0.02 in   Scattered Clouds
9:53 AM 66.9 °F 64.0 °F 90% 29.81 in 10.0 mi SSE 12.7 mph 24.2 mph 0.02 in   Clear
10:53 AM 70.0 °F 64.9 °F 84% 29.86 in 10.0 mi SSW 13.8 mph - N/A   Clear
11:53 AM 72.0 °F 64.0 °F 76% 29.86 in 10.0 mi SSW 11.5 mph 18.4 mph N/A   Partly Cloudy
12:53 PM 71.1 °F 64.0 °F 78% 29.85 in 10.0 mi SW 9.2 mph - 0.00 in   Mostly Cloudy
1:53 PM 73.0 °F 64.9 °F 76% 29.83 in 10.0 mi SSW 10.4 mph - N/A   Scattered Clouds
2:53 PM 73.9 °F 66.9 °F 79% 29.83 in 10.0 mi SW 6.9 mph - N/A   Overcast
3:53 PM 71.1 °F 62.1 °F 73% 29.82 in 10.0 mi WNW 11.5 mph 19.6 mph N/A Thunderstorm Overcast
4:42 PM 66.2 °F 62.6 °F 88% 29.78 in 10.0 mi ESE 5.8 mph - 0.07 in Rain Light Rain
4:50 PM 68.0 °F 62.6 °F 83% 29.78 in 9.0 mi ESE 4.6 mph - 0.08 in Rain , Thunderstorm Light Rain
4:53 PM 68.0 °F 64.0 °F 87% 29.77 in 7.0 mi ESE 5.8 mph - 0.08 in Rain , Thunderstorm Light Rain
5:05 PM 66.2 °F 64.4 °F 94% 29.77 in 5.0 mi SSE 3.5 mph - 0.02 in Rain Light Rain
5:53 PM 66.9 °F 64.0 °F 90% 29.75 in 10.0 mi SSW 4.6 mph - 0.03 in Rain Light Rain
6:53 PM 66.9 °F 64.0 °F 90% 29.75 in 10.0 mi SSE 11.5 mph - 0.03 in Rain Light Rain
7:03 PM 66.2 °F 64.4 °F 94% 29.77 in 10.0 mi South 10.4 mph 20.7 mph 0.00 in Rain Light Rain
7:53 PM 66.9 °F 64.0 °F 90% 29.84 in 10.0 mi West 13.8 mph 21.9 mph 0.00 in   Overcast
8:16 PM 66.2 °F 62.6 °F 88% 29.82 in 10.0 mi SSW 5.8 mph - N/A   Scattered Clouds
8:53 PM 66.0 °F 62.1 °F 87% 29.80 in 10.0 mi South 6.9 mph - N/A   Clear
9:53 PM 66.9 °F 62.1 °F 84% 29.78 in 10.0 mi South 10.4 mph - N/A   Clear
10:53 PM 66.9 °F 62.1 °F 84% 29.77 in 10.0 mi South 9.2 mph - N/A   Clear
11:53 PM 66.9 °F 62.1 °F 84% 29.72 in 10.0 mi SSE 12.7 mph 23.0 mph 0.00 in Rain Light Rain